datetime,flow
1957-10-01,0.0
1957-10-02,0.0
1957-10-03,0.0
1957-10-04,0.0
1957-10-05,0.0
1957-10-06,0.0
1957-10-07,0.0
1957-10-08,0.0
1957-10-09,0.0
1957-10-10,0.0
1957-10-11,0.0
1957-10-12,0.0
1957-10-13,49.0
1957-10-14,18.0
1957-10-15,0.0
1957-10-16,0.0
1957-10-17,0.0
1957-10-18,0.0
1957-10-19,0.0
1957-10-20,1520.0
1957-10-21,3160.0
1957-10-22,888.0
1957-10-23,1150.0
1957-10-24,1050.0
1957-10-25,585.0
1957-10-26,236.0
1957-10-27,4.0
1957-10-28,3.0
1957-10-29,0.0
1957-10-30,0.0
1957-10-31,0.0
1957-11-01,21.0
1957-11-02,432.0
1957-11-03,846.0
1957-11-04,976.0
1957-11-05,1200.0
1957-11-06,2130.0
1957-11-07,2180.0
1957-11-08,2470.0
1957-11-09,2010.0
1957-11-10,1650.0
1957-11-11,1510.0
1957-11-12,1220.0
1957-11-13,881.0
1957-11-14,508.0
1957-11-15,418.0
1957-11-16,418.0
1957-11-17,540.0
1957-11-18,460.0
1957-11-19,516.0
1957-11-20,516.0
1957-11-21,425.0
1957-11-22,390.0
1957-11-23,310.0
1957-11-24,235.0
1957-11-25,80.0
1957-11-26,14.0
1957-11-27,20.0
1957-11-28,58.0
1957-11-29,99.0
1957-11-30,74.0
1957-12-01,79.0
1957-12-02,43.0
1957-12-03,23.0
1957-12-04,20.0
1957-12-05,35.0
1957-12-06,47.0
1957-12-07,40.0
1957-12-08,30.0
1957-12-09,24.0
1957-12-10,20.0
1957-12-11,43.0
1957-12-12,46.0
1957-12-13,39.0
1957-12-14,43.0
1957-12-15,35.0
1957-12-16,42.0
1957-12-17,39.0
1957-12-18,46.0
1957-12-19,74.0
1957-12-20,102.0
1957-12-21,104.0
1957-12-22,95.0
1957-12-23,49.0
1957-12-24,67.0
1957-12-25,62.0
1957-12-26,38.0
1957-12-27,56.0
1957-12-28,36.0
1957-12-29,39.0
1957-12-30,45.0
1957-12-31,25.0
1958-01-01,3.0
1958-01-02,2.0
1958-01-03,1.0
1958-01-04,0.0
1958-01-05,0.0
1958-01-06,0.0
1958-01-07,0.0
1958-01-08,4.0
1958-01-09,1.0
1958-01-10,0.0
1958-01-11,0.0
1958-01-12,0.0
1958-01-13,0.0
1958-01-14,1.0
1958-01-15,0.0
1958-01-16,0.0
1958-01-17,0.0
1958-01-18,0.0
1958-01-19,0.0
1958-01-20,12.0
1958-01-21,25.0
1958-01-22,22.0
1958-01-23,10.0
1958-01-24,5.0
1958-01-25,1.0
1958-01-26,2.0
1958-01-27,16.0
1958-01-28,20.0
1958-01-29,16.0
1958-01-30,16.0
1958-01-31,13.0
1958-02-01,16.0
1958-02-02,32.0
1958-02-03,26.0
1958-02-04,25.0
1958-02-05,21.0
1958-02-06,29.0
1958-02-07,32.0
1958-02-08,38.0
1958-02-09,33.0
1958-02-10,31.0
1958-02-11,44.0
1958-02-12,59.0
1958-02-13,102.0
1958-02-14,54.0
1958-02-15,6.0
1958-02-16,0.0
1958-02-17,0.0
1958-02-18,0.0
1958-02-19,0.0
1958-02-20,5.0
1958-02-21,64.0
1958-02-22,114.0
1958-02-23,175.0
1958-02-24,217.0
1958-02-25,213.0
1958-02-26,166.0
1958-02-27,93.0
1958-02-28,99.0
1958-03-01,17.0
1958-03-02,7.0
1958-03-03,2.0
1958-03-04,2.0
1958-03-05,2.0
1958-03-06,1.0
1958-03-07,1.0
1958-03-08,29.0
1958-03-09,25.0
1958-03-10,4.0
1958-03-11,3.0
1958-03-12,0.0
1958-03-13,0.0
1958-03-14,0.0
1958-03-15,0.0
1958-03-16,0.0
1958-03-17,0.0
1958-03-18,0.0
1958-03-19,0.0
1958-03-20,0.0
1958-03-21,1.0
1958-03-22,0.0
1958-03-23,52.0
1958-03-24,111.0
1958-03-25,161.0
1958-03-26,119.0
1958-03-27,90.0
1958-03-28,60.0
1958-03-29,102.0
1958-03-30,202.0
1958-03-31,70.0
1958-04-01,4.0
1958-04-02,2.0
1958-04-03,136.0
1958-04-04,205.0
1958-04-05,283.0
1958-04-06,304.0
1958-04-07,110.0
1958-04-08,69.0
1958-04-09,179.0
1958-04-10,299.0
1958-04-11,394.0
1958-04-12,530.0
1958-04-13,866.0
1958-04-14,640.0
1958-04-15,690.0
1958-04-16,872.0
1958-04-17,2300.0
1958-04-18,2220.0
1958-04-19,2100.0
1958-04-20,2720.0
1958-04-21,3830.0
1958-04-22,3830.0
1958-04-23,4580.0
1958-04-24,5550.0
1958-04-25,6380.0
1958-04-26,4420.0
1958-04-27,4900.0
1958-04-28,7040.0
1958-04-29,6680.0
1958-04-30,5150.0
1958-05-01,3760.0
1958-05-02,3800.0
1958-05-03,4100.0
1958-05-04,4340.0
1958-05-05,4420.0
1958-05-06,4660.0
1958-05-07,5700.0
1958-05-08,5950.0
1958-05-09,5700.0
1958-05-10,5650.0
1958-05-11,5550.0
1958-05-12,6500.0
1958-05-13,6800.0
1958-05-14,6920.0
1958-05-15,7400.0
1958-05-16,7680.0
1958-05-17,6620.0
1958-05-18,6500.0
1958-05-19,6100.0
1958-05-20,5950.0
1958-05-21,5950.0
1958-05-22,4950.0
1958-05-23,5350.0
1958-05-24,5600.0
1958-05-25,5900.0
1958-05-26,6800.0
1958-05-27,7490.0
1958-05-28,7490.0
1958-05-29,7930.0
1958-05-30,8820.0
1958-05-31,9490.0
1958-06-01,9580.0
1958-06-02,7970.0
1958-06-03,6380.0
1958-06-04,5780.0
1958-06-05,4960.0
1958-06-06,4590.0
1958-06-07,3700.0
1958-06-08,2770.0
1958-06-09,2870.0
1958-06-10,2960.0
1958-06-11,3240.0
1958-06-12,2940.0
1958-06-13,2840.0
1958-06-14,2750.0
1958-06-15,2980.0
1958-06-16,2990.0
1958-06-17,2660.0
1958-06-18,2980.0
1958-06-19,3050.0
1958-06-20,3290.0
1958-06-21,3430.0
1958-06-22,3820.0
1958-06-23,3800.0
1958-06-24,2100.0
1958-06-25,940.0
1958-06-26,2140.0
1958-06-27,3180.0
1958-06-28,1190.0
1958-06-29,944.0
1958-06-30,1000.0
1958-07-01,720.0
1958-07-02,570.0
1958-07-03,560.0
1958-07-04,520.0
1958-07-05,480.0
1958-07-06,350.0
1958-07-07,320.0
1958-07-08,308.0
1958-07-09,200.0
1958-07-10,205.0
1958-07-11,185.0
1958-07-12,140.0
1958-07-13,100.0
1958-07-14,50.0
1958-07-15,30.0
1958-07-16,25.0
1958-07-17,20.0
1958-07-18,20.0
1958-07-19,15.0
1958-07-20,15.0
1958-07-21,14.0
1958-07-22,10.0
1958-07-23,8.0
1958-07-24,6.0
1958-07-25,4.0
1958-07-26,2.0
1958-07-27,0.0
1958-07-28,0.0
1958-07-29,0.0
1958-07-30,0.0
1958-07-31,0.0
1958-08-01,0.0
1958-08-02,0.0
1958-08-03,0.0
1958-08-04,0.0
1958-08-05,0.0
1958-08-06,0.0
1958-08-07,0.0
1958-08-08,0.0
1958-08-09,0.0
1958-08-10,0.0
1958-08-11,0.0
1958-08-12,0.0
1958-08-13,0.0
1958-08-14,0.0
1958-08-15,0.0
1958-08-16,0.0
1958-08-17,0.0
1958-08-18,0.0
1958-08-19,0.0
1958-08-20,0.0
1958-08-21,0.0
1958-08-22,0.0
1958-08-23,0.0
1958-08-24,0.0
1958-08-25,0.0
1958-08-26,0.0
1958-08-27,0.0
1958-08-28,0.0
1958-08-29,0.0
1958-08-30,0.0
1958-08-31,0.0
1958-09-01,0.0
1958-09-02,0.0
1958-09-03,0.0
1958-09-04,0.0
1958-09-05,0.0
1958-09-06,0.0
1958-09-07,0.0
1958-09-08,0.0
1958-09-09,0.0
1958-09-10,0.0
1958-09-11,0.0
1958-09-12,0.0
1958-09-13,0.0
1958-09-14,4.0
1958-09-15,240.0
1958-09-16,9.0
1958-09-17,0.0
1958-09-18,0.0
1958-09-19,0.0
1958-09-20,0.0
1958-09-21,0.0
1958-09-22,0.0
1958-09-23,0.0
1958-09-24,0.0
1958-09-25,0.0
1958-09-26,0.0
1958-09-27,0.0
1958-09-28,0.0
1958-09-29,0.0
1958-09-30,0.0
1958-10-01,0.0
1958-10-02,0.0
1958-10-03,0.0
1958-10-04,0.0
1958-10-05,0.0
1958-10-06,0.0
1958-10-07,0.0
1958-10-08,0.0
1958-10-09,0.0
1958-10-10,0.0
1958-10-11,0.0
1958-10-12,0.0
1958-10-13,0.0
1958-10-14,0.0
1958-10-15,0.0
1958-10-16,0.0
1958-10-17,0.0
1958-10-18,0.0
1958-10-19,0.0
1958-10-20,0.0
1958-10-21,0.0
1958-10-22,0.0
1958-10-23,0.0
1958-10-24,0.0
1958-10-25,0.0
1958-10-26,0.0
1958-10-27,0.0
1958-10-28,0.0
1958-10-29,0.0
1958-10-30,0.0
1958-10-31,0.0
1958-11-01,0.0
1958-11-02,0.0
1958-11-03,0.0
1958-11-04,0.0
1958-11-05,0.0
1958-11-06,0.0
1958-11-07,0.0
1958-11-08,0.0
1958-11-09,0.0
1958-11-10,0.0
1958-11-11,0.0
1958-11-12,0.0
1958-11-13,0.0
1958-11-14,0.0
1958-11-15,0.0
1958-11-16,0.0
1958-11-17,0.0
1958-11-18,0.0
1958-11-19,0.0
1958-11-20,0.0
1958-11-21,0.0
1958-11-22,0.0
1958-11-23,0.0
1958-11-24,0.0
1958-11-25,0.0
1958-11-26,0.0
1958-11-27,0.0
1958-11-28,0.0
1958-11-29,27.0
1958-11-30,65.0
1958-12-01,67.0
1958-12-02,86.0
1958-12-03,106.0
1958-12-04,106.0
1958-12-05,95.0
1958-12-06,100.0
1958-12-07,127.0
1958-12-08,150.0
1958-12-09,170.0
1958-12-10,170.0
1958-12-11,101.0
1958-12-12,205.0
1958-12-13,195.0
1958-12-14,190.0
1958-12-15,190.0
1958-12-16,170.0
1958-12-17,127.0
1958-12-18,95.0
1958-12-19,95.0
1958-12-20,98.0
1958-12-21,118.0
1958-12-22,200.0
1958-12-23,134.0
1958-12-24,37.0
1958-12-25,12.0
1958-12-26,0.0
1958-12-27,0.0
1958-12-28,0.0
1958-12-29,44.0
1958-12-30,35.0
1958-12-31,30.0
1959-01-01,30.0
1959-01-02,25.0
1959-01-03,0.0
1959-01-04,0.0
1959-01-05,150.0
1959-01-06,0.0
1959-01-07,0.0
1959-01-08,0.0
1959-01-09,0.0
1959-01-10,43.0
1959-01-11,56.0
1959-01-12,60.0
1959-01-13,67.0
1959-01-14,112.0
1959-01-15,175.0
1959-01-16,138.0
1959-01-17,86.0
1959-01-18,47.0
1959-01-19,35.0
1959-01-20,40.0
1959-01-21,60.0
1959-01-22,56.0
1959-01-23,50.0
1959-01-24,45.0
1959-01-25,21.0
1959-01-26,20.0
1959-01-27,29.0
1959-01-28,30.0
1959-01-29,32.0
1959-01-30,28.0
1959-01-31,26.0
1959-02-01,31.0
1959-02-02,30.0
1959-02-03,50.0
1959-02-04,53.0
1959-02-05,46.0
1959-02-06,46.0
1959-02-07,53.0
1959-02-08,46.0
1959-02-09,40.0
1959-02-10,36.0
1959-02-11,36.0
1959-02-12,44.0
1959-02-13,43.0
1959-02-14,43.0
1959-02-15,42.0
1959-02-16,46.0
1959-02-17,50.0
1959-02-18,47.0
1959-02-19,52.0
1959-02-20,65.0
1959-02-21,84.0
1959-02-22,134.0
1959-02-23,150.0
1959-02-24,158.0
1959-02-25,195.0
1959-02-26,170.0
1959-02-27,158.0
1959-02-28,146.0
1959-03-01,180.0
1959-03-02,130.0
1959-03-03,84.0
1959-03-04,3.0
1959-03-05,0.0
1959-03-06,0.0
1959-03-07,0.0
1959-03-08,0.0
1959-03-09,0.0
1959-03-10,0.0
1959-03-11,0.0
1959-03-12,0.0
1959-03-13,0.0
1959-03-14,0.0
1959-03-15,0.0
1959-03-16,0.0
1959-03-17,0.0
1959-03-18,0.0
1959-03-19,0.0
1959-03-20,0.0
1959-03-21,0.0
1959-03-22,0.0
1959-03-23,0.0
1959-03-24,0.0
1959-03-25,0.0
1959-03-26,0.0
1959-03-27,0.0
1959-03-28,0.0
1959-03-29,0.0
1959-03-30,0.0
1959-03-31,0.0
1959-04-01,0.0
1959-04-02,0.0
1959-04-03,0.0
1959-04-04,0.0
1959-04-05,0.0
1959-04-06,0.0
1959-04-07,0.0
1959-04-08,0.0
1959-04-09,0.0
1959-04-10,0.0
1959-04-11,0.0
1959-04-12,0.0
1959-04-13,0.0
1959-04-14,0.0
1959-04-15,0.0
1959-04-16,0.0
1959-04-17,0.0
1959-04-18,0.0
1959-04-19,0.0
1959-04-20,0.0
1959-04-21,0.0
1959-04-22,0.0
1959-04-23,0.0
1959-04-24,0.0
1959-04-25,0.0
1959-04-26,0.0
1959-04-27,0.0
1959-04-28,0.0
1959-04-29,0.0
1959-04-30,0.0
1959-05-01,0.0
1959-05-02,0.0
1959-05-03,0.0
1959-05-04,0.0
1959-05-05,0.0
1959-05-06,0.0
1959-05-07,0.0
1959-05-08,0.0
1959-05-09,0.0
1959-05-10,0.0
1959-05-11,0.0
1959-05-12,0.0
1959-05-13,0.0
1959-05-14,0.0
1959-05-15,0.0
1959-05-16,0.0
1959-05-17,0.0
1959-05-18,0.0
1959-05-19,0.0
1959-05-20,0.0
1959-05-21,0.0
1959-05-22,0.0
1959-05-23,0.0
1959-05-24,0.0
1959-05-25,0.0
1959-05-26,0.0
1959-05-27,0.0
1959-05-28,0.0
1959-05-29,0.0
1959-05-30,0.0
1959-05-31,0.0
1959-06-01,0.0
1959-06-02,0.0
1959-06-03,0.0
1959-06-04,0.0
1959-06-05,0.0
1959-06-06,0.0
1959-06-07,0.0
1959-06-08,0.0
1959-06-09,0.0
1959-06-10,0.0
1959-06-11,0.0
1959-06-12,0.0
1959-06-13,0.0
1959-06-14,0.0
1959-06-15,0.0
1959-06-16,0.0
1959-06-17,0.0
1959-06-18,0.0
1959-06-19,0.0
1959-06-20,0.0
1959-06-21,0.0
1959-06-22,0.0
1959-06-23,0.0
1959-06-24,0.0
1959-06-25,0.0
1959-06-26,0.0
1959-06-27,0.0
1959-06-28,0.0
1959-06-29,0.0
1959-06-30,0.0
1959-07-01,0.0
1959-07-02,0.0
1959-07-03,0.0
1959-07-04,0.0
1959-07-05,0.0
1959-07-06,0.0
1959-07-07,0.0
1959-07-08,0.0
1959-07-09,0.0
1959-07-10,0.0
1959-07-11,0.0
1959-07-12,0.0
1959-07-13,0.0
1959-07-14,0.0
1959-07-15,0.0
1959-07-16,0.0
1959-07-17,0.0
1959-07-18,0.0
1959-07-19,0.0
1959-07-20,0.0
1959-07-21,0.0
1959-07-22,0.0
1959-07-23,0.0
1959-07-24,0.0
1959-07-25,0.0
1959-07-26,0.0
1959-07-27,0.0
1959-07-28,0.0
1959-07-29,0.0
1959-07-30,0.0
1959-07-31,0.0
1959-08-01,0.0
1959-08-02,0.0
1959-08-03,0.0
1959-08-04,0.0
1959-08-05,0.0
1959-08-06,0.0
1959-08-07,0.0
1959-08-08,0.0
1959-08-09,0.0
1959-08-10,0.0
1959-08-11,0.0
1959-08-12,0.0
1959-08-13,0.0
1959-08-14,0.0
1959-08-15,0.0
1959-08-16,0.0
1959-08-17,0.0
1959-08-18,0.0
1959-08-19,0.0
1959-08-20,0.0
1959-08-21,0.0
1959-08-22,0.0
1959-08-23,0.0
1959-08-24,0.0
1959-08-25,0.0
1959-08-26,0.0
1959-08-27,0.0
1959-08-28,0.0
1959-08-29,0.0
1959-08-30,0.0
1959-08-31,0.0
1959-09-01,0.0
1959-09-02,0.0
1959-09-03,0.0
1959-09-04,0.0
1959-09-05,0.0
1959-09-06,0.0
1959-09-07,0.0
1959-09-08,0.0
1959-09-09,0.0
1959-09-10,0.0
1959-09-11,0.0
1959-09-12,0.0
1959-09-13,0.0
1959-09-14,0.0
1959-09-15,0.0
1959-09-16,0.0
1959-09-17,0.0
1959-09-18,0.0
1959-09-19,0.0
1959-09-20,0.0
1959-09-21,0.0
1959-09-22,0.0
1959-09-23,0.0
1959-09-24,0.0
1959-09-25,0.0
1959-09-26,0.0
1959-09-27,0.0
1959-09-28,0.0
1959-09-29,0.0
1959-09-30,0.0
1959-10-01,0.0
1959-10-02,0.0
1959-10-03,0.0
1959-10-04,0.0
1959-10-05,0.0
1959-10-06,0.0
1959-10-07,0.0
1959-10-08,0.0
1959-10-09,0.0
1959-10-10,0.0
1959-10-11,0.0
1959-10-12,0.0
1959-10-13,0.0
1959-10-14,0.0
1959-10-15,0.0
1959-10-16,0.0
1959-10-17,0.0
1959-10-18,0.0
1959-10-19,0.0
1959-10-20,0.0
1959-10-21,0.0
1959-10-22,0.0
1959-10-23,0.0
1959-10-24,0.0
1959-10-25,0.0
1959-10-26,0.0
1959-10-27,0.0
1959-10-28,0.0
1959-10-29,0.0
1959-10-30,0.0
1959-10-31,0.0
1959-11-01,0.0
1959-11-02,0.0
1959-11-03,0.0
1959-11-04,0.0
1959-11-05,0.0
1959-11-06,0.0
1959-11-07,0.0
1959-11-08,0.0
1959-11-09,0.0
1959-11-10,0.0
1959-11-11,0.0
1959-11-12,0.0
1959-11-13,0.0
1959-11-14,0.0
1959-11-15,0.0
1959-11-16,0.0
1959-11-17,0.0
1959-11-18,0.0
1959-11-19,0.0
1959-11-20,0.0
1959-11-21,0.0
1959-11-22,0.0
1959-11-23,0.0
1959-11-24,0.0
1959-11-25,0.0
1959-11-26,0.0
1959-11-27,0.0
1959-11-28,0.0
1959-11-29,0.0
1959-11-30,0.0
1959-12-01,0.0
1959-12-02,0.0
1959-12-03,0.0
1959-12-04,0.0
1959-12-05,0.0
1959-12-06,0.0
1959-12-07,0.0
1959-12-08,0.0
1959-12-09,0.0
1959-12-10,0.0
1959-12-11,0.0
1959-12-12,0.0
1959-12-13,0.0
1959-12-14,0.0
1959-12-15,0.0
1959-12-16,0.0
1959-12-17,0.0
1959-12-18,0.0
1959-12-19,0.0
1959-12-20,0.0
1959-12-21,0.0
1959-12-22,0.0
1959-12-23,0.0
1959-12-24,0.0
1959-12-25,0.0
1959-12-26,0.0
1959-12-27,0.0
1959-12-28,0.0
1959-12-29,0.0
1959-12-30,0.0
1959-12-31,0.0
1960-01-01,0.0
1960-01-02,0.0
1960-01-03,0.0
1960-01-04,0.0
1960-01-05,0.0
1960-01-06,0.0
1960-01-07,0.0
1960-01-08,0.0
1960-01-09,0.0
1960-01-10,0.0
1960-01-11,0.0
1960-01-12,0.0
1960-01-13,0.0
1960-01-14,0.0
1960-01-15,0.0
1960-01-16,0.0
1960-01-17,0.0
1960-01-18,0.0
1960-01-19,0.0
1960-01-20,0.0
1960-01-21,0.0
1960-01-22,0.0
1960-01-23,0.0
1960-01-24,0.0
1960-01-25,0.0
1960-01-26,0.0
1960-01-27,0.0
1960-01-28,0.0
1960-01-29,0.0
1960-01-30,0.0
1960-01-31,0.0
1960-02-01,0.0
1960-02-02,0.0
1960-02-03,0.0
1960-02-04,0.0
1960-02-05,0.0
1960-02-06,0.0
1960-02-07,0.0
1960-02-08,0.0
1960-02-09,0.0
1960-02-10,0.0
1960-02-11,0.0
1960-02-12,0.0
1960-02-13,0.0
1960-02-14,0.0
1960-02-15,0.0
1960-02-16,0.0
1960-02-17,0.0
1960-02-18,0.0
1960-02-19,0.0
1960-02-20,0.0
1960-02-21,0.0
1960-02-22,0.0
1960-02-23,0.0
1960-02-24,0.0
1960-02-25,0.0
1960-02-26,0.0
1960-02-27,0.0
1960-02-28,0.0
1960-02-29,
1960-03-01,0.0
1960-03-02,0.0
1960-03-03,0.0
1960-03-04,0.0
1960-03-05,0.0
1960-03-06,0.0
1960-03-07,0.0
1960-03-08,0.0
1960-03-09,0.0
1960-03-10,0.0
1960-03-11,259.0
1960-03-12,850.0
1960-03-13,840.0
1960-03-14,702.0
1960-03-15,850.0
1960-03-16,1180.0
1960-03-17,940.0
1960-03-18,737.0
1960-03-19,638.0
1960-03-20,710.0
1960-03-21,570.0
1960-03-22,485.0
1960-03-23,702.0
1960-03-24,810.0
1960-03-25,1190.0
1960-03-26,970.0
1960-03-27,1600.0
1960-03-28,1830.0
1960-03-29,1680.0
1960-03-30,1740.0
1960-03-31,1750.0
1960-04-01,1940.0
1960-04-02,1700.0
1960-04-03,1460.0
1960-04-04,1220.0
1960-04-05,980.0
1960-04-06,920.0
1960-04-07,1300.0
1960-04-08,1720.0
1960-04-09,1810.0
1960-04-10,2370.0
1960-04-11,2560.0
1960-04-12,2690.0
1960-04-13,3360.0
1960-04-14,3840.0
1960-04-15,3510.0
1960-04-16,3380.0
1960-04-17,3700.0
1960-04-18,3210.0
1960-04-19,2690.0
1960-04-20,2370.0
1960-04-21,2300.0
1960-04-22,2300.0
1960-04-23,2350.0
1960-04-24,3000.0
1960-04-25,3070.0
1960-04-26,3110.0
1960-04-27,2850.0
1960-04-28,2230.0
1960-04-29,1840.0
1960-04-30,1510.0
1960-05-01,1870.0
1960-05-02,1380.0
1960-05-03,877.0
1960-05-04,300.0
1960-05-05,791.0
1960-05-06,960.0
1960-05-07,520.0
1960-05-08,810.0
1960-05-09,702.0
1960-05-10,630.0
1960-05-11,527.0
1960-05-12,355.0
1960-05-13,520.0
1960-05-14,630.0
1960-05-15,1180.0
1960-05-16,1080.0
1960-05-17,1010.0
1960-05-18,1110.0
1960-05-19,1130.0
1960-05-20,1210.0
1960-05-21,1180.0
1960-05-22,1620.0
1960-05-23,1080.0
1960-05-24,678.0
1960-05-25,646.0
1960-05-26,562.0
1960-05-27,520.0
1960-05-28,414.0
1960-05-29,285.0
1960-05-30,555.0
1960-05-31,670.0
1960-06-01,686.0
1960-06-02,670.0
1960-06-03,638.0
1960-06-04,562.0
1960-06-05,800.0
1960-06-06,1080.0
1960-06-07,990.0
1960-06-08,1520.0
1960-06-09,1740.0
1960-06-10,2030.0
1960-06-11,3050.0
1960-06-12,3460.0
1960-06-13,2810.0
1960-06-14,2480.0
1960-06-15,2870.0
1960-06-16,2300.0
1960-06-17,1410.0
1960-06-18,1220.0
1960-06-19,1310.0
1960-06-20,1380.0
1960-06-21,940.0
1960-06-22,670.0
1960-06-23,654.0
1960-06-24,622.0
1960-06-25,534.0
1960-06-26,492.0
1960-06-27,310.0
1960-06-28,68.0
1960-06-29,8.4
1960-06-30,0.6000000000000001
1960-07-01,0.0
1960-07-02,0.0
1960-07-03,0.0
1960-07-04,0.0
1960-07-05,0.0
1960-07-06,0.0
1960-07-07,0.0
1960-07-08,0.0
1960-07-09,0.0
1960-07-10,0.0
1960-07-11,0.0
1960-07-12,0.0
1960-07-13,0.0
1960-07-14,0.0
1960-07-15,0.0
1960-07-16,0.0
1960-07-17,0.0
1960-07-18,0.0
1960-07-19,0.0
1960-07-20,0.0
1960-07-21,0.0
1960-07-22,0.0
1960-07-23,0.0
1960-07-24,0.0
1960-07-25,0.0
1960-07-26,0.0
1960-07-27,0.0
1960-07-28,0.0
1960-07-29,0.0
1960-07-30,0.0
1960-07-31,0.0
1960-08-01,0.0
1960-08-02,0.0
1960-08-03,0.0
1960-08-04,0.0
1960-08-05,0.0
1960-08-06,0.0
1960-08-07,0.0
1960-08-08,0.0
1960-08-09,0.0
1960-08-10,0.0
1960-08-11,0.0
1960-08-12,0.0
1960-08-13,0.0
1960-08-14,0.0
1960-08-15,0.0
1960-08-16,0.0
1960-08-17,0.0
1960-08-18,0.0
1960-08-19,0.0
1960-08-20,0.0
1960-08-21,0.0
1960-08-22,0.0
1960-08-23,0.0
1960-08-24,0.0
1960-08-25,0.0
1960-08-26,0.0
1960-08-27,0.0
1960-08-28,0.0
1960-08-29,0.0
1960-08-30,0.0
1960-08-31,0.0
1960-09-01,0.0
1960-09-02,0.0
1960-09-03,0.0
1960-09-04,0.0
1960-09-05,0.0
1960-09-06,0.0
1960-09-07,0.0
1960-09-08,0.0
1960-09-09,0.0
1960-09-10,0.0
1960-09-11,0.0
1960-09-12,0.0
1960-09-13,0.0
1960-09-14,0.0
1960-09-15,0.0
1960-09-16,0.0
1960-09-17,0.0
1960-09-18,0.0
1960-09-19,0.0
1960-09-20,0.0
1960-09-21,0.0
1960-09-22,0.0
1960-09-23,0.0
1960-09-24,0.0
1960-09-25,0.0
1960-09-26,0.0
1960-09-27,0.0
1960-09-28,0.0
1960-09-29,0.0
1960-09-30,0.0
1960-10-01,0.0
1960-10-02,0.0
1960-10-03,0.0
1960-10-04,0.0
1960-10-05,0.0
1960-10-06,0.0
1960-10-07,0.0
1960-10-08,0.0
1960-10-09,0.0
1960-10-10,0.0
1960-10-11,0.0
1960-10-12,0.0
1960-10-13,0.0
1960-10-14,0.0
1960-10-15,0.0
1960-10-16,0.0
1960-10-17,0.0
1960-10-18,0.0
1960-10-19,0.0
1960-10-20,0.0
1960-10-21,0.0
1960-10-22,0.0
1960-10-23,0.0
1960-10-24,0.0
1960-10-25,0.0
1960-10-26,0.0
1960-10-27,0.0
1960-10-28,0.0
1960-10-29,0.0
1960-10-30,0.0
1960-10-31,0.0
1960-11-01,0.0
1960-11-02,0.0
1960-11-03,0.0
1960-11-04,0.0
1960-11-05,0.0
1960-11-06,0.0
1960-11-07,0.0
1960-11-08,0.0
1960-11-09,0.0
1960-11-10,0.0
1960-11-11,0.0
1960-11-12,0.0
1960-11-13,0.0
1960-11-14,0.0
1960-11-15,0.0
1960-11-16,0.0
1960-11-17,0.0
1960-11-18,0.0
1960-11-19,0.0
1960-11-20,0.0
1960-11-21,0.0
1960-11-22,0.0
1960-11-23,0.0
1960-11-24,0.0
1960-11-25,0.0
1960-11-26,0.0
1960-11-27,0.0
1960-11-28,0.0
1960-11-29,0.0
1960-11-30,0.0
1960-12-01,0.0
1960-12-02,0.0
1960-12-03,0.0
1960-12-04,0.0
1960-12-05,0.0
1960-12-06,0.0
1960-12-07,0.0
1960-12-08,0.0
1960-12-09,0.0
1960-12-10,0.0
1960-12-11,0.0
1960-12-12,0.0
1960-12-13,0.0
1960-12-14,0.0
1960-12-15,0.0
1960-12-16,0.0
1960-12-17,0.0
1960-12-18,0.0
1960-12-19,0.0
1960-12-20,0.0
1960-12-21,0.0
1960-12-22,0.0
1960-12-23,0.0
1960-12-24,0.0
1960-12-25,0.0
1960-12-26,0.0
1960-12-27,0.0
1960-12-28,0.0
1960-12-29,0.0
1960-12-30,0.0
1960-12-31,0.0
1961-01-01,0.0
1961-01-02,0.0
1961-01-03,0.0
1961-01-04,0.0
1961-01-05,0.0
1961-01-06,0.0
1961-01-07,0.0
1961-01-08,0.0
1961-01-09,0.0
1961-01-10,0.0
1961-01-11,0.0
1961-01-12,0.0
1961-01-13,0.0
1961-01-14,0.0
1961-01-15,0.0
1961-01-16,0.0
1961-01-17,0.0
1961-01-18,0.0
1961-01-19,0.0
1961-01-20,0.0
1961-01-21,0.0
1961-01-22,0.0
1961-01-23,0.0
1961-01-24,0.0
1961-01-25,0.0
1961-01-26,0.0
1961-01-27,0.0
1961-01-28,0.0
1961-01-29,0.0
1961-01-30,0.0
1961-01-31,0.0
1961-02-01,0.0
1961-02-02,0.0
1961-02-03,0.0
1961-02-04,0.0
1961-02-05,0.0
1961-02-06,0.0
1961-02-07,0.0
1961-02-08,0.0
1961-02-09,0.0
1961-02-10,0.0
1961-02-11,0.0
1961-02-12,0.0
1961-02-13,0.0
1961-02-14,0.0
1961-02-15,0.0
1961-02-16,0.0
1961-02-17,0.0
1961-02-18,0.0
1961-02-19,0.0
1961-02-20,0.0
1961-02-21,0.0
1961-02-22,0.0
1961-02-23,0.0
1961-02-24,0.0
1961-02-25,0.0
1961-02-26,0.0
1961-02-27,0.0
1961-02-28,0.0
1961-03-01,0.0
1961-03-02,0.0
1961-03-03,0.0
1961-03-04,0.0
1961-03-05,0.0
1961-03-06,0.0
1961-03-07,0.0
1961-03-08,0.0
1961-03-09,0.0
1961-03-10,0.0
1961-03-11,0.0
1961-03-12,0.0
1961-03-13,0.0
1961-03-14,0.0
1961-03-15,0.0
1961-03-16,0.0
1961-03-17,0.0
1961-03-18,0.0
1961-03-19,0.0
1961-03-20,0.0
1961-03-21,0.0
1961-03-22,0.0
1961-03-23,0.0
1961-03-24,0.0
1961-03-25,0.0
1961-03-26,0.0
1961-03-27,0.0
1961-03-28,0.0
1961-03-29,0.0
1961-03-30,0.0
1961-03-31,0.0
1961-04-01,0.0
1961-04-02,0.0
1961-04-03,0.0
1961-04-04,0.0
1961-04-05,0.0
1961-04-06,0.0
1961-04-07,196.0
1961-04-08,179.0
1961-04-09,192.0
1961-04-10,192.0
1961-04-11,28.0
1961-04-12,3.0
1961-04-13,0.0
1961-04-14,0.0
1961-04-15,0.0
1961-04-16,0.0
1961-04-17,0.0
1961-04-18,0.0
1961-04-19,0.0
1961-04-20,0.0
1961-04-21,0.0
1961-04-22,228.0
1961-04-23,721.0
1961-04-24,1050.0
1961-04-25,1230.0
1961-04-26,1080.0
1961-04-27,702.0
1961-04-28,561.0
1961-04-29,355.0
1961-04-30,451.0
1961-05-01,869.0
1961-05-02,1650.0
1961-05-03,1700.0
1961-05-04,2340.0
1961-05-05,2770.0
1961-05-06,2630.0
1961-05-07,2910.0
1961-05-08,2640.0
1961-05-09,1660.0
1961-05-10,1270.0
1961-05-11,1130.0
1961-05-12,943.0
1961-05-13,1300.0
1961-05-14,2160.0
1961-05-15,1970.0
1961-05-16,1340.0
1961-05-17,1270.0
1961-05-18,814.0
1961-05-19,541.0
1961-05-20,523.0
1961-05-21,852.0
1961-05-22,870.0
1961-05-23,670.0
1961-05-24,620.0
1961-05-25,810.0
1961-05-26,820.0
1961-05-27,930.0
1961-05-28,1210.0
1961-05-29,1180.0
1961-05-30,555.0
1961-05-31,615.0
1961-06-01,778.0
1961-06-02,503.0
1961-06-03,411.0
1961-06-04,502.0
1961-06-05,703.0
1961-06-06,215.0
1961-06-07,80.0
1961-06-08,24.0
1961-06-09,12.0
1961-06-10,4.0
1961-06-11,0.0
1961-06-12,0.0
1961-06-13,0.0
1961-06-14,0.0
1961-06-15,0.0
1961-06-16,0.0
1961-06-17,0.0
1961-06-18,0.0
1961-06-19,0.0
1961-06-20,0.0
1961-06-21,0.0
1961-06-22,0.0
1961-06-23,0.0
1961-06-24,0.0
1961-06-25,0.0
1961-06-26,0.0
1961-06-27,0.0
1961-06-28,0.0
1961-06-29,0.0
1961-06-30,0.0
1961-07-01,0.0
1961-07-02,0.0
1961-07-03,0.0
1961-07-04,0.0
1961-07-05,0.0
1961-07-06,0.0
1961-07-07,0.0
1961-07-08,0.0
1961-07-09,3.0
1961-07-10,0.7000000000000001
1961-07-11,0.0
1961-07-12,0.0
1961-07-13,0.0
1961-07-14,0.0
1961-07-15,0.0
1961-07-16,0.0
1961-07-17,0.0
1961-07-18,0.0
1961-07-19,0.0
1961-07-20,0.0
1961-07-21,0.0
1961-07-22,0.0
1961-07-23,0.0
1961-07-24,0.0
1961-07-25,0.0
1961-07-26,0.0
1961-07-27,0.0
1961-07-28,0.0
1961-07-29,0.0
1961-07-30,0.0
1961-07-31,0.0
1961-08-01,0.0
1961-08-02,0.0
1961-08-03,0.0
1961-08-04,0.0
1961-08-05,0.0
1961-08-06,0.0
1961-08-07,0.0
1961-08-08,0.0
1961-08-09,0.0
1961-08-10,0.0
1961-08-11,0.0
1961-08-12,0.0
1961-08-13,0.0
1961-08-14,0.0
1961-08-15,0.0
1961-08-16,0.0
1961-08-17,0.0
1961-08-18,0.0
1961-08-19,0.0
1961-08-20,0.0
1961-08-21,0.0
1961-08-22,0.0
1961-08-23,0.0
1961-08-24,680.0
1961-08-25,26.0
1961-08-26,0.0
1961-08-27,0.0
1961-08-28,0.0
1961-08-29,0.0
1961-08-30,0.0
1961-08-31,0.0
1961-09-01,0.0
1961-09-02,0.0
1961-09-03,0.0
1961-09-04,0.0
1961-09-05,0.0
1961-09-06,0.0
1961-09-07,0.0
1961-09-08,0.0
1961-09-09,0.0
1961-09-10,0.0
1961-09-11,0.0
1961-09-12,0.0
1961-09-13,0.0
1961-09-14,0.0
1961-09-15,0.0
1961-09-16,0.0
1961-09-17,0.0
1961-09-18,0.0
1961-09-19,0.0
1961-09-20,0.0
1961-09-21,0.0
1961-09-22,0.0
1961-09-23,0.0
1961-09-24,0.0
1961-09-25,0.0
1961-09-26,0.0
1961-09-27,0.0
1961-09-28,0.0
1961-09-29,0.0
1961-09-30,0.0
1961-10-01,0.0
1961-10-02,0.0
1961-10-03,0.0
1961-10-04,0.0
1961-10-05,0.0
1961-10-06,0.0
1961-10-07,0.0
1961-10-08,0.0
1961-10-09,0.0
1961-10-10,0.0
1961-10-11,0.0
1961-10-12,0.0
1961-10-13,0.0
1961-10-14,0.0
1961-10-15,0.0
1961-10-16,0.0
1961-10-17,0.0
1961-10-18,0.0
1961-10-19,0.0
1961-10-20,0.0
1961-10-21,0.0
1961-10-22,0.0
1961-10-23,0.0
1961-10-24,0.0
1961-10-25,0.0
1961-10-26,0.0
1961-10-27,0.0
1961-10-28,0.0
1961-10-29,0.0
1961-10-30,0.0
1961-10-31,0.0
1961-11-01,0.0
1961-11-02,0.0
1961-11-03,0.0
1961-11-04,0.0
1961-11-05,0.0
1961-11-06,162.0
1961-11-07,344.0
1961-11-08,408.0
1961-11-09,390.0
1961-11-10,366.0
1961-11-11,366.0
1961-11-12,372.0
1961-11-13,384.0
1961-11-14,420.0
1961-11-15,478.0
1961-11-16,420.0
1961-11-17,459.0
1961-11-18,426.0
1961-11-19,459.0
1961-11-20,472.0
1961-11-21,378.0
1961-11-22,170.0
1961-11-23,200.0
1961-11-24,149.0
1961-11-25,156.0
1961-11-26,237.0
1961-11-27,378.0
1961-11-28,506.0
1961-11-29,499.0
1961-11-30,402.0
1961-12-01,179.0
1961-12-02,4.0
1961-12-03,160.0
1961-12-04,155.0
1961-12-05,7.0
1961-12-06,48.0